Dewpoint
60 60 59 59 58 56 56 55 54 53 52 53 54 54 53 53 53 54 54 53 51 53 53 53 52 53 53 53 54 54 54 54 54 54 55 56 56 57 58 58 59 61 61
60 60 58 57 55 55 54 54 53 53 52 52 52 51 52 52 52 52 51 52 51 53 54 53 52 52 53 53 53 53 53 53 53 53 53 54 54 56 57 58 59 59 59
60 59 57 56 55 55 54 53 51 50 49 47 50 49 47 48 49 48 49 49 50 51 53 53 53 53 53 54 53 53 53 52 52 53 53 52 53 55 56 55 55 57 58
59 58 57 55 55 54 53 51 49 48 47 45 45 44 43 42 45 46 47 47 50 49 49 53 53 53 54 53 53 52 52 51 52 52 54 54 53 52 54 56 55 54 57
57 57 56 55 54 53 51 49 46 45 43 42 41 41 42 42 41 41 45 47 49 50 50 49 51 50 52 52 51 51 51 51 51 51 51 54 55 55 53 53 54 55 56
55 55 55 54 53 52 50 47 45 44 43 42 41 40 41 42 42 41 41 45 48 49 49 49 48 48 50 51 51 51 50 51 51 51 51 53 55 55 55 54 54 53 53
53 53 53 53 52 51 50 47 44 43 42 43 41 36 36 38 41 41 42 45 47 48 49 48 47 47 47 50 51 51 50 49 50 51 50 52 54 54 53 53 54 55 53
52 51 50 50 50 49 47 45 44 42 42 43 38 37 30 32 37 43 43 45 46 48 48 47 46 46 47 48 50 51 50 49 49 50 50 50 51 54 52 53 55 56 55
51 50 48 47 47 47 46 45 44 43 41 41 42 36 30 28 33 37 44 45 46 46 47 46 46 46 46 47 49 49 49 49 49 48 49 48 49 53 52 53 55 56 55
50 49 48 47 47 46 45 45 44 43 42 41 41 42 40 34 32 28 34 41 46 46 46 46 46 46 45 46 48 48 49 49 49 48 48 49 51 52 51 50 51 50 50
51 50 49 48 47 46 46 45 45 43 43 42 41 41 42 42 41 38 32 34 39 42 45 45 45 45 45 45 47 48 48 49 49 49 48 48 50 52 53 52 51 50 50
51 50 50 48 47 47 46 46 45 44 44 43 43 41 40 38 40 40 39 38 37 39 41 42 43 44 44 45 46 47 48 49 49 49 48 47 50 50 51 51 50 51 51
49 49 50 50 49 48 47 46 45 45 44 43 43 42 42 41 41 41 40 38 37 39 41 42 42 43 44 46 47 47 47 48 48 48 49 48 50 46 47 48 49 49 49
48 49 49 49 49 49 48 47 46 46 45 44 44 43 43 43 42 41 40 39 37 38 40 39 42 43 45 46 47 47 47 46 47 48 49 49 48 47 47 47 47 46 46
45 46 47 48 48 48 48 47 47 46 45 45 44 43 43 43 43 43 42 41 39 35 35 39 39 43 45 46 47 46 46 45 46 47 49 50 48 48 48 47 47 46 45
41 42 43 45 46 47 48 47 47 46 46 45 45 44 44 43 43 43 43 42 42 40 37 39 39 41 45 45 46 46 45 44 45 46 48 49 48 47 48 47 46 45 44
36 38 39 40 42 44 45 46 47 46 46 45 45 45 44 44 43 43 43 42 42 42 40 40 40 41 42 45 45 45 44 44 44 44 47 49 48 47 47 47 45 45 44
33 35 35 36 37 39 41 44 45 46 46 46 45 45 44 44 43 43 43 42 42 42 41 40 41 41 42 44 44 44 43 43 44 43 45 47 48 47 47 46 45 43 42
32 33 33 33 34 36 38 40 42 44 45 46 46 45 45 44 43 43 43 42 42 42 42 41 41 41 42 43 42 43 43 43 42 42 42 44 47 48 47 46 44 42 40
31 32 32 33 33 34 35 37 39 40 42 44 45 46 45 45 44 43 43 43 43 42 42 41 41 41 41 42 43 41 41 42 40 40 41 43 45 48 47 45 42 40 38
30 31 32 32 33 33 33 35 37 37 38 39 42 43 44 45 45 45 44 43 42 42 42 41 40 41 40 40 40 41 41 40 39 39 40 41 44 45 45 41 39 37 36
29 30 31 32 32 32 33 34 35 35 35 36 37 39 43 44 44 44 44 44 43 42 41 41 40 39 39 40 40 40 39 37 35 38 37 36 40 39 39 39 38 37 35
29 29 30 30 30 31 32 32 33 34 34 34 36 37 37 41 44 45 44 45 44 44 43 41 40 39 39 39 39 39 38 36 36 36 35 32 35 36 39 40 38 36 33
27 28 29 30 30 30 31 32 34 34 34 34 35 35 36 38 42 44 43 43 42 42 42 41 39 39 39 40 40 39 37 35 34 35 34 30 32 32 38 39 38 35 31
27 27 28 29 30 30 31 32 34 34 35 35 36 36 38 39 41 43 41 38 37 37 39 39 39 39 39 40 40 38 35 33 31 32 33 31 31 31 32 35 37 34 30
27 28 28 29 29 30 31 33 35 36 35 34 33 35 39 41 42 43 38 36 33 34 34 34 34 34 34 34 35 38 36 34 31 30 32 31 31 31 28 30 32 33 28
Wind_Speed
3 2 1 1 1 2 3 4 3 3 3 3 3 3 3 3 3 2 2 4 4 5 6 7 7 7 7 7 8 9 10 11 11 11 12 12 12 13 14 14 14 13 12
1 1 1 1 2 2 3 3 2 2 2 3 2 2 2 2 2 2 2 2 2 3 4 5 6 5 5 6 6 7 8 10 11 11 12 12 12 12 13 13 12 12 13
2 2 2 2 2 2 3 2 1 1 1 1 1 2 1 1 2 2 2 1 1 1 3 5 5 4 4 5 5 6 8 10 11 12 12 13 13 13 13 13 14 14 13
3 3 3 3 3 2 1 1 1 2 2 2 3 4 4 3 4 4 3 3 2 2 1 3 4 5 4 5 6 8 9 10 11 12 13 14 13 14 14 14 14 14 14
4 4 3 3 3 2 1 1 1 1 3 4 5 5 5 5 5 4 5 4 3 3 2 1 3 4 5 5 6 8 9 10 12 13 14 15 15 14 14 15 15 15 14
3 3 3 4 4 3 2 1 2 1 2 4 6 8 7 6 5 6 6 5 5 4 3 1 1 2 3 4 5 6 9 10 12 13 15 15 15 13 14 15 16 16 15
5 4 2 2 3 4 3 2 1 3 3 1 5 4 4 5 5 6 6 7 6 5 4 3 2 2 2 3 4 5 8 10 11 12 14 15 12 13 16 18 18 15 13
4 4 4 4 4 4 4 4 4 2 2 2 2 2 5 2 3 4 5 6 7 5 6 5 4 4 4 3 3 4 6 9 11 12 13 14 13 14 15 17 14 7 5
5 4 4 4 5 5 7 6 5 7 6 2 5 3 3 4 4 2 4 6 6 7 7 7 7 6 5 5 5 4 4 7 10 11 12 13 13 8 11 14 15 19 15
4 4 5 5 7 6 8 8 6 7 6 10 3 9 7 3 4 6 2 4 6 9 9 8 8 7 7 7 6 6 6 7 9 10 10 12 11 5 5 11 14 16 14
3 5 6 7 8 7 9 9 8 9 9 9 9 5 7 8 8 9 11 5 4 7 8 9 7 7 8 8 7 7 6 7 9 10 11 11 8 4 3 2 5 8 9
5 5 5 7 9 10 11 11 11 11 12 12 11 11 11 7 5 10 13 13 10 6 6 8 8 9 7 7 8 8 5 6 8 9 10 10 6 3 3 2 4 5 6
8 12 11 9 9 10 11 11 12 13 13 13 14 14 13 15 9 7 9 11 9 5 4 7 8 7 6 6 7 7 5 5 7 9 10 11 3 1 1 3 5 5 8
9 11 12 12 12 11 11 11 12 13 13 15 18 15 15 15 15 16 15 10 12 8 5 8 5 5 5 6 7 6 4 5 7 8 9 9 6 4 4 5 5 6 7
10 12 12 13 13 12 12 11 12 14 12 15 16 17 17 16 15 16 16 17 18 16 12 7 7 3 4 6 7 6 5 4 6 8 9 9 9 10 9 9 8 7 5
13 13 14 14 14 13 12 10 11 13 13 15 15 17 16 16 16 16 17 17 16 19 17 8 9 5 5 6 7 8 7 5 5 6 8 9 13 13 11 12 11 9 7
13 13 14 15 15 16 16 14 14 15 15 16 16 17 19 19 17 16 15 17 18 17 20 14 10 7 6 11 8 10 7 5 3 4 7 8 10 15 15 14 14 11 10
13 14 15 16 16 17 18 17 17 17 18 18 18 18 20 18 19 19 17 20 21 21 20 20 12 12 13 12 10 11 9 6 4 3 7 9 11 16 17 17 17 16 13
12 12 12 13 14 15 17 17 17 18 19 19 20 21 21 20 20 19 20 20 20 19 19 14 12 10 12 5 6 5 6 5 3 5 7 9 10 12 20 19 17 17 18
13 15 14 14 15 16 16 15 18 19 20 19 19 21 22 23 23 22 21 23 20 19 16 16 13 9 7 6 7 8 8 6 5 3 5 7 9 6 12 19 18 17 19
14 15 17 18 17 17 16 21 20 20 21 23 22 21 20 23 26 26 21 21 21 22 19 18 14 9 10 7 13 8 10 5 4 4 3 3 4 4 10 14 16 18 17
16 17 17 16 17 16 23 26 24 22 23 23 24 24 24 23 26 30 29 32 25 24 20 16 13 16 13 11 8 9 8 6 5 4 4 0 2 13 11 10 16 16 14
17 18 17 17 18 18 22 26 27 23 23 23 23 24 25 22 25 24 24 32 27 25 19 16 14 8 9 8 8 8 9 9 7 7 5 4 6 9 10 12 15 14 13
16 17 18 18 18 18 23 25 28 23 22 23 23 25 26 28 25 21 21 19 16 14 11 9 11 8 6 6 9 9 10 7 6 5 4 5 2 4 8 11 13 12 11
18 17 16 18 19 21 24 26 27 24 23 26 22 25 26 26 25 21 15 14 13 10 11 15 13 10 6 4 4 9 8 11 4 5 3 5 5 6 4 9 10 10 9
17 16 18 17 20 23 23 25 25 22 25 25 26 24 25 24 22 15 15 15 15 11 15 11 10 8 6 4 3 5 11 12 7 4 6 6 11 7 5 3 7 6 5
Wind_Direction
172 143 99 71 89 98 77 77 61 38 34 32 38 42 40 29 23 5 349 4 26 46 41 31 24 24 26 32 33 28 23 12 1 346 340 338 340 337 329 325 316 311 308
164 151 75 107 89 82 82 68 40 32 17 358 353 12 355 341 333 316 325 317 357 56 36 29 18 18 16 15 20 24 21 10 359 351 344 333 335 329 326 322 320 317 309
206 197 186 176 170 128 107 78 36 28 3 343 289 295 313 318 273 279 275 272 225 69 35 23 9 4 359 355 358 5 4 1 354 348 344 338 330 329 322 317 311 311 303
209 214 214 202 178 153 114 71 342 303 294 290 283 273 266 263 256 252 253 248 224 224 340 25 25 14 4 357 358 352 352 353 351 347 346 342 332 324 321 319 314 309 307
201 206 204 185 167 177 200 241 270 312 304 304 299 287 269 263 260 262 256 252 229 217 223 12 28 20 359 355 351 350 351 349 346 341 341 346 346 331 319 312 311 308 306
191 193 193 188 185 199 216 226 266 277 279 291 292 283 275 266 259 247 245 239 226 219 220 232 314 338 343 338 347 350 349 344 342 337 334 341 352 356 348 328 310 297 295
204 210 224 217 216 236 250 236 259 275 289 300 309 305 279 246 249 237 228 228 227 222 220 223 247 267 286 299 319 339 343 342 339 335 331 333 351 340 345 336 323 298 284
222 228 234 240 233 240 239 231 224 264 263 237 280 315 315 300 262 232 225 228 231 228 232 233 243 250 253 263 273 314 333 335 338 333 330 327 342 359 348 338 338 331 311
236 241 248 252 249 239 253 242 229 228 258 241 220 251 285 271 326 228 233 235 233 234 239 244 249 252 246 247 256 269 301 318 326 331 327 319 329 1 13 25 50 68 67
295 286 271 259 256 247 253 251 237 234 221 254 241 233 242 245 276 297 250 245 242 246 247 249 252 255 247 246 243 251 272 297 311 323 321 315 331 353 49 64 73 75 79
295 281 282 278 270 260 263 260 251 235 230 247 233 220 229 238 238 242 278 264 264 242 247 249 252 258 255 248 244 246 259 290 307 314 315 308 326 319 224 129 32 60 59
339 345 321 284 275 270 267 267 262 253 248 245 245 237 231 230 220 228 245 265 262 273 267 257 252 253 258 248 246 244 260 292 305 312 312 299 307 270 204 147 91 83 59
10 351 340 323 297 279 273 267 262 255 247 246 244 246 239 239 233 225 238 261 257 257 269 248 246 248 247 243 239 231 249 285 307 311 313 306 262 330 68 122 126 93 79
3 344 336 327 315 306 294 279 270 261 246 244 247 240 243 243 230 229 238 242 261 251 248 239 223 220 228 234 232 229 249 285 307 310 313 301 220 193 161 140 121 106 104
4 353 348 341 333 321 309 296 284 280 263 257 246 238 233 240 233 232 230 231 237 258 255 226 224 199 209 221 223 224 233 267 303 312 315 297 211 183 177 153 131 118 94
3 356 352 346 340 333 321 303 291 284 275 267 257 254 244 241 235 228 225 224 224 239 257 219 221 206 201 222 214 221 220 242 265 298 308 311 225 207 175 146 138 130 119
4 359 353 346 342 336 333 322 299 284 276 274 268 260 255 251 243 237 225 218 217 215 237 235 218 207 209 227 220 223 221 228 256 297 319 323 270 219 175 156 142 131 116
1 356 351 348 344 339 333 326 317 305 290 282 274 268 260 257 246 240 231 228 220 211 218 233 211 210 215 212 220 229 222 215 241 294 317 307 312 241 168 153 143 133 119
351 349 348 343 336 330 324 320 318 314 303 290 284 276 270 262 256 246 236 236 228 216 213 217 212 201 207 208 195 217 236 227 246 285 304 295 299 226 166 152 148 139 119
346 345 343 338 335 329 325 327 328 321 311 302 292 284 277 267 259 252 242 234 228 210 205 207 216 209 199 190 186 203 202 212 250 265 278 275 272 203 162 159 143 128 113
343 339 336 335 333 332 331 328 323 320 316 309 300 290 279 268 259 254 251 235 223 216 205 208 203 193 193 172 197 188 200 187 231 244 280 276 207 172 125 116 123 116 116
337 334 330 324 322 321 322 322 321 316 310 308 302 299 291 280 261 255 245 241 223 215 202 194 206 212 196 195 174 186 183 186 219 215 213 243 105 125 125 126 126 119 120
331 328 321 317 315 313 317 317 314 307 303 301 298 295 294 285 273 256 252 247 221 211 196 179 197 187 182 181 183 194 191 205 190 172 139 95 30 106 122 123 124 129 125
324 319 314 311 310 309 311 311 312 306 297 297 298 296 294 289 287 245 249 221 195 164 149 159 163 149 158 163 184 185 192 158 107 121 117 130 92 101 126 125 130 127 125
319 313 310 304 306 306 311 314 314 312 303 302 297 296 284 279 282 237 204 164 138 117 125 122 115 117 122 113 181 159 169 166 155 170 151 123 148 109 88 119 121 129 130
313 310 306 305 307 308 310 311 315 315 309 304 302 297 292 271 264 204 148 131 132 134 125 109 110 95 99 95 64 193 186 187 146 161 174 124 149 141 119 49 103 101 131